Year,Month,Day,Hour,Minute,Value (Times are PST for temperature in C)
2016,05,17,00,00,11.30
2016,05,17,00,01,11.30
2016,05,17,00,02,11.30
2016,05,17,00,03,11.20
2016,05,17,00,04,11.20
2016,05,17,00,05,11.20
2016,05,17,00,06,11.20
2016,05,17,00,07,11.10
2016,05,17,00,08,11.10
2016,05,17,00,09,11.00
2016,05,17,00,10,11.00
2016,05,17,00,11,10.90
2016,05,17,00,12,10.90
2016,05,17,00,13,10.80
2016,05,17,00,14,10.80
2016,05,17,00,15,10.80
2016,05,17,00,16,10.70
2016,05,17,00,17,10.70
2016,05,17,00,18,10.70
2016,05,17,00,19,10.60
2016,05,17,00,20,10.60
2016,05,17,00,21,10.60
2016,05,17,00,22,10.60
2016,05,17,00,23,10.60
2016,05,17,00,24,10.60
2016,05,17,00,25,10.60
2016,05,17,00,27,10.60
2016,05,17,00,28,10.60
2016,05,17,00,29,10.60
2016,05,17,00,30,10.60
2016,05,17,00,31,10.60
2016,05,17,00,32,10.60
2016,05,17,00,33,10.70
2016,05,17,00,34,10.70
2016,05,17,00,35,10.70
2016,05,17,00,36,10.70
2016,05,17,00,37,10.70
2016,05,17,00,38,10.70
2016,05,17,00,39,10.70
2016,05,17,00,40,10.70
2016,05,17,00,41,10.70
2016,05,17,00,42,10.70
2016,05,17,00,43,10.70
2016,05,17,00,44,10.60
2016,05,17,00,45,10.60
2016,05,17,00,46,10.60
2016,05,17,00,47,10.60
2016,05,17,00,48,10.60
2016,05,17,00,49,10.60
2016,05,17,00,50,10.60
2016,05,17,00,51,10.60
2016,05,17,00,52,10.60
2016,05,17,00,53,10.60
2016,05,17,00,54,10.60
2016,05,17,00,55,10.60
2016,05,17,00,56,10.60
2016,05,17,00,57,10.60
2016,05,17,00,58,10.50
2016,05,17,00,59,10.50
2016,05,17,01,00,10.40
2016,05,17,01,01,10.40
2016,05,17,01,02,10.40
2016,05,17,01,03,10.40
2016,05,17,01,04,10.40
2016,05,17,01,05,10.40
2016,05,17,01,06,10.40
2016,05,17,01,07,10.40
2016,05,17,01,08,10.40
2016,05,17,01,09,10.40
2016,05,17,01,10,10.40
2016,05,17,01,11,10.40
2016,05,17,01,12,10.40
2016,05,17,01,13,10.40
2016,05,17,01,14,10.40
2016,05,17,01,15,10.40
2016,05,17,01,16,10.40
2016,05,17,01,17,10.30
2016,05,17,01,18,10.30
2016,05,17,01,19,10.30
2016,05,17,01,20,10.30
2016,05,17,01,21,10.40
2016,05,17,01,22,10.40
2016,05,17,01,23,10.40
2016,05,17,01,24,10.30
2016,05,17,01,25,10.30
2016,05,17,01,26,10.30
2016,05,17,01,27,10.30
2016,05,17,01,28,10.30
2016,05,17,01,29,10.30
2016,05,17,01,30,10.30
2016,05,17,01,31,10.30
2016,05,17,01,32,10.30
2016,05,17,01,33,10.30
2016,05,17,01,34,10.30
2016,05,17,01,35,10.30
2016,05,17,01,36,10.40
2016,05,17,01,37,10.40
2016,05,17,01,38,10.40
2016,05,17,01,39,10.40
2016,05,17,01,40,10.40
2016,05,17,01,41,10.30
2016,05,17,01,42,10.30
2016,05,17,01,43,10.30
2016,05,17,01,44,10.30
2016,05,17,01,45,10.30
2016,05,17,01,46,10.30
2016,05,17,01,47,10.30
2016,05,17,01,48,10.20
2016,05,17,01,49,10.20
2016,05,17,01,50,10.20
2016,05,17,01,51,10.20
2016,05,17,01,52,10.20
2016,05,17,01,53,10.10
2016,05,17,01,54,10.10
2016,05,17,01,55,10.10
2016,05,17,01,56,10.10
2016,05,17,01,57,10.10
2016,05,17,01,58,10.10
2016,05,17,01,59,10.10
2016,05,17,02,00,10.10
2016,05,17,02,01,10.10
2016,05,17,02,02,10.10
2016,05,17,02,03,10.10
2016,05,17,02,04,10.10
2016,05,17,02,05,10.10
2016,05,17,02,06,10.10
2016,05,17,02,07,10.10
2016,05,17,02,08,10.10
2016,05,17,02,09,10.10
2016,05,17,02,10,10.10
2016,05,17,02,11,10.10
2016,05,17,02,12,10.10
2016,05,17,02,13,10.10
2016,05,17,02,14,10.10
2016,05,17,02,15,10.10
2016,05,17,02,16,10.10
2016,05,17,02,17,10.10
2016,05,17,02,18,10.10
2016,05,17,02,19,10.10
2016,05,17,02,20,10.00
2016,05,17,02,21,10.00
2016,05,17,02,22,10.00
2016,05,17,02,23,10.00
2016,05,17,02,24,10.00
2016,05,17,02,25,9.90
2016,05,17,02,26,10.00
2016,05,17,02,27,10.00
2016,05,17,02,28,10.00
2016,05,17,02,29,10.00
2016,05,17,02,30,10.00
2016,05,17,02,31,10.10
2016,05,17,02,32,10.10
2016,05,17,02,33,10.10
2016,05,17,02,34,10.20
2016,05,17,02,35,10.20
2016,05,17,02,36,10.20
2016,05,17,02,37,10.20
2016,05,17,02,38,10.20
2016,05,17,02,39,10.20
2016,05,17,02,40,10.20
2016,05,17,02,41,10.20
2016,05,17,02,42,10.20
2016,05,17,02,43,10.20
2016,05,17,02,44,10.30
2016,05,17,02,45,10.20
2016,05,17,02,46,10.20
2016,05,17,02,47,10.20
2016,05,17,02,48,10.20
2016,05,17,02,49,10.20
2016,05,17,02,50,10.20
2016,05,17,02,51,10.20
2016,05,17,02,52,10.20
2016,05,17,02,53,10.20
2016,05,17,02,54,10.20
2016,05,17,02,55,10.30
2016,05,17,02,56,10.20
2016,05,17,02,57,10.20
2016,05,17,02,58,10.20
2016,05,17,02,59,10.20
2016,05,17,03,00,10.20
2016,05,17,03,01,10.20
2016,05,17,03,02,10.10
2016,05,17,03,03,10.10
2016,05,17,03,04,10.10
2016,05,17,03,05,10.00
2016,05,17,03,06,10.00
2016,05,17,03,07,9.90
2016,05,17,03,08,9.90
2016,05,17,03,09,9.90
2016,05,17,03,10,9.80
2016,05,17,03,11,9.80
2016,05,17,03,12,9.80
2016,05,17,03,13,9.80
2016,05,17,03,14,9.70
2016,05,17,03,15,9.70
2016,05,17,03,16,9.70
2016,05,17,03,17,9.70
2016,05,17,03,18,9.60
2016,05,17,03,19,9.60
2016,05,17,03,20,9.60
2016,05,17,03,21,9.60
2016,05,17,03,22,9.50
2016,05,17,03,23,9.50
2016,05,17,03,24,9.40
2016,05,17,03,25,9.40
2016,05,17,03,26,9.40
2016,05,17,03,27,9.40
2016,05,17,03,28,9.40
2016,05,17,03,29,9.30
2016,05,17,03,30,9.30
2016,05,17,03,31,9.30
2016,05,17,03,32,9.30
2016,05,17,03,33,9.30
2016,05,17,03,34,9.30
2016,05,17,03,35,9.30
2016,05,17,03,36,9.20
2016,05,17,03,37,9.20
2016,05,17,03,38,9.20
2016,05,17,03,39,9.20
2016,05,17,03,40,9.20
2016,05,17,03,41,9.20
2016,05,17,03,42,9.20
2016,05,17,03,43,9.20
2016,05,17,03,44,9.20
2016,05,17,03,45,9.20
2016,05,17,03,46,9.20
2016,05,17,03,47,9.20
2016,05,17,03,48,9.20
2016,05,17,03,49,9.20
2016,05,17,03,50,9.20
2016,05,17,03,51,9.20
2016,05,17,03,52,9.20
2016,05,17,03,53,9.20
2016,05,17,03,54,9.10
2016,05,17,03,55,9.10
2016,05,17,03,56,9.10
2016,05,17,03,57,9.10
2016,05,17,03,58,9.10
2016,05,17,03,59,9.10
2016,05,17,04,00,9.10
2016,05,17,04,01,9.10
2016,05,17,04,02,9.10
2016,05,17,04,03,9.10
2016,05,17,04,04,9.10
2016,05,17,04,05,9.10
2016,05,17,04,06,9.10
2016,05,17,04,07,9.10
2016,05,17,04,08,9.10
2016,05,17,04,09,9.20
2016,05,17,04,10,9.20
2016,05,17,04,11,9.20
2016,05,17,04,12,9.20
2016,05,17,04,13,9.30
2016,05,17,04,14,9.30
2016,05,17,04,15,9.30
2016,05,17,04,16,9.30
2016,05,17,04,17,9.30
2016,05,17,04,18,9.30
2016,05,17,04,19,9.40
2016,05,17,04,20,9.40
2016,05,17,04,21,9.40
2016,05,17,04,22,9.40
2016,05,17,04,23,9.40
2016,05,17,04,24,9.40
2016,05,17,04,25,9.30
2016,05,17,04,26,9.30
2016,05,17,04,27,9.30
2016,05,17,04,28,9.30
2016,05,17,04,29,9.30
2016,05,17,04,30,9.30
2016,05,17,04,31,9.30
2016,05,17,04,32,9.30
2016,05,17,04,33,9.30
2016,05,17,04,34,9.30
2016,05,17,04,35,9.30
2016,05,17,04,36,9.40
2016,05,17,04,37,9.40
2016,05,17,04,38,9.40
2016,05,17,04,39,9.40
2016,05,17,04,40,9.40
2016,05,17,04,41,9.30
2016,05,17,04,42,9.30
2016,05,17,04,43,9.30
2016,05,17,04,44,9.30
2016,05,17,04,45,9.30
2016,05,17,04,46,9.30
2016,05,17,04,47,9.30
2016,05,17,04,48,9.20
2016,05,17,04,49,9.20
2016,05,17,04,50,9.20
2016,05,17,04,51,9.20
2016,05,17,04,52,9.20
2016,05,17,04,53,9.20
2016,05,17,04,54,9.20
2016,05,17,04,55,9.20
2016,05,17,04,56,9.20
2016,05,17,04,57,9.10
2016,05,17,04,58,9.10
2016,05,17,04,59,9.10
2016,05,17,05,00,9.10
2016,05,17,05,01,9.10
2016,05,17,05,02,9.10
2016,05,17,05,03,9.10
2016,05,17,05,04,9.00
2016,05,17,05,05,9.00
2016,05,17,05,06,8.90
2016,05,17,05,07,8.90
2016,05,17,05,08,8.90
2016,05,17,05,09,8.90
2016,05,17,05,10,8.90
2016,05,17,05,11,8.80
2016,05,17,05,12,8.80
2016,05,17,05,13,8.80
2016,05,17,05,14,8.80
2016,05,17,05,15,8.80
2016,05,17,05,16,8.80
2016,05,17,05,17,8.80
2016,05,17,05,18,8.80
2016,05,17,05,19,8.80
2016,05,17,05,20,8.70
2016,05,17,05,21,8.70
2016,05,17,05,22,8.70
2016,05,17,05,23,8.70
2016,05,17,05,24,8.70
2016,05,17,05,25,8.70
2016,05,17,05,26,8.70
2016,05,17,05,27,8.70
2016,05,17,05,28,8.70
2016,05,17,05,29,8.70
2016,05,17,05,30,8.70
2016,05,17,05,31,8.70
2016,05,17,05,32,8.60
2016,05,17,05,33,8.60
2016,05,17,05,34,8.60
2016,05,17,05,35,8.60
2016,05,17,05,36,8.60
2016,05,17,05,37,8.60
2016,05,17,05,38,8.60
2016,05,17,05,39,8.60
2016,05,17,05,40,8.60
2016,05,17,05,41,8.60
2016,05,17,05,42,8.60
2016,05,17,05,43,8.60
2016,05,17,05,44,8.60
2016,05,17,05,45,8.60
2016,05,17,05,46,8.60
2016,05,17,05,47,8.60
2016,05,17,05,48,8.60
2016,05,17,05,49,8.60
2016,05,17,05,50,8.60
2016,05,17,05,51,8.60
2016,05,17,05,52,8.60
2016,05,17,05,53,8.50
2016,05,17,05,54,8.60
2016,05,17,05,55,8.60
2016,05,17,05,56,8.50
2016,05,17,05,57,8.50
2016,05,17,05,58,8.50
2016,05,17,05,59,8.50
2016,05,17,06,00,8.50
2016,05,17,06,01,8.50
2016,05,17,06,02,8.50
2016,05,17,06,03,8.50
2016,05,17,06,04,8.50
2016,05,17,06,05,8.50
2016,05,17,06,06,8.50
2016,05,17,06,07,8.50
2016,05,17,06,08,8.50
2016,05,17,06,09,8.50
2016,05,17,06,10,8.50
2016,05,17,06,11,8.50
2016,05,17,06,12,8.50
2016,05,17,06,13,8.50
2016,05,17,06,14,8.50
2016,05,17,06,15,8.50
2016,05,17,06,16,8.60
2016,05,17,06,17,8.60
2016,05,17,06,18,8.60
2016,05,17,06,19,8.60
2016,05,17,06,20,8.60
2016,05,17,06,21,8.60
2016,05,17,06,22,8.60
2016,05,17,06,23,8.60
2016,05,17,06,24,8.70
2016,05,17,06,25,8.70
2016,05,17,06,26,8.70
2016,05,17,06,27,8.70
2016,05,17,06,28,8.70
2016,05,17,06,29,8.70
2016,05,17,06,30,8.80
2016,05,17,06,31,8.80
2016,05,17,06,32,8.80
2016,05,17,06,33,8.80
2016,05,17,06,34,8.80
2016,05,17,06,35,8.90
2016,05,17,06,36,8.90
2016,05,17,06,37,8.90
2016,05,17,06,38,9.00
2016,05,17,06,39,9.10
2016,05,17,06,40,9.10
2016,05,17,06,41,9.10
2016,05,17,06,42,9.20
2016,05,17,06,43,9.20
2016,05,17,06,44,9.20
2016,05,17,06,45,9.30
2016,05,17,06,46,9.30
2016,05,17,06,47,9.40
2016,05,17,06,48,9.40
2016,05,17,06,49,9.50
2016,05,17,06,50,9.60
2016,05,17,06,51,9.60
2016,05,17,06,52,9.70
2016,05,17,06,53,9.70
2016,05,17,06,54,9.80
2016,05,17,06,55,9.80
2016,05,17,06,56,9.80
2016,05,17,06,57,9.90
2016,05,17,06,58,9.90
2016,05,17,06,59,10.00
2016,05,17,07,00,10.00
2016,05,17,07,01,10.10
2016,05,17,07,02,10.10
2016,05,17,07,03,10.10
2016,05,17,07,04,10.20
2016,05,17,07,05,10.20
2016,05,17,07,06,10.20
2016,05,17,07,07,10.30
2016,05,17,07,08,10.30
2016,05,17,07,09,10.40
2016,05,17,07,10,10.40
2016,05,17,07,11,10.50
2016,05,17,07,12,10.60
2016,05,17,07,13,10.60
2016,05,17,07,14,10.60
2016,05,17,07,15,10.70
2016,05,17,07,16,10.70
2016,05,17,07,17,10.80
2016,05,17,07,18,10.80
2016,05,17,07,19,10.90
2016,05,17,07,20,10.90
2016,05,17,07,21,11.00
2016,05,17,07,22,11.10
2016,05,17,07,23,11.10
2016,05,17,07,24,11.10
2016,05,17,07,25,11.10
2016,05,17,07,26,11.10
2016,05,17,07,27,11.10
2016,05,17,07,28,11.10
2016,05,17,07,29,11.10
2016,05,17,07,30,11.10
2016,05,17,07,31,11.10
2016,05,17,07,32,11.10
2016,05,17,07,33,11.10
2016,05,17,07,34,11.10
2016,05,17,07,35,11.10
2016,05,17,07,36,11.10
2016,05,17,07,37,11.10
2016,05,17,07,38,11.10
2016,05,17,07,39,11.20
2016,05,17,07,40,11.20
2016,05,17,07,41,11.20
2016,05,17,07,42,11.20
2016,05,17,07,43,11.20
2016,05,17,07,44,11.20
2016,05,17,07,45,11.30
2016,05,17,07,46,11.30
2016,05,17,07,47,11.30
2016,05,17,07,48,11.40
2016,05,17,07,49,11.40
2016,05,17,07,50,11.40
2016,05,17,07,51,11.40
2016,05,17,07,52,11.40
2016,05,17,07,53,11.40
2016,05,17,07,54,11.40
2016,05,17,07,55,11.50
2016,05,17,07,56,11.50
2016,05,17,07,57,11.60
2016,05,17,07,58,11.60
2016,05,17,07,59,11.60
2016,05,17,08,00,11.60
2016,05,17,08,01,11.70
2016,05,17,08,02,11.70
2016,05,17,08,03,11.70
2016,05,17,08,04,11.70
2016,05,17,08,05,11.70
2016,05,17,08,06,11.80
2016,05,17,08,07,11.80
2016,05,17,08,08,11.80
2016,05,17,08,09,11.90
2016,05,17,08,10,11.90
2016,05,17,08,11,12.00
2016,05,17,08,12,12.00
2016,05,17,08,13,12.10
2016,05,17,08,14,12.10
2016,05,17,08,15,12.10
2016,05,17,08,16,12.20
2016,05,17,08,17,12.20
2016,05,17,08,18,12.20
2016,05,17,08,19,12.30
2016,05,17,08,20,12.30
2016,05,17,08,21,12.30
2016,05,17,08,22,12.30
2016,05,17,08,23,12.30
2016,05,17,08,24,12.30
2016,05,17,08,25,12.30
2016,05,17,08,26,12.30
2016,05,17,08,27,12.30
2016,05,17,08,28,12.30
2016,05,17,08,29,12.30
2016,05,17,08,30,12.30
2016,05,17,08,31,12.30
2016,05,17,08,32,12.30
2016,05,17,08,33,12.30
2016,05,17,08,34,12.30
2016,05,17,08,35,12.30
2016,05,17,08,36,12.30
2016,05,17,08,37,12.30
2016,05,17,08,38,12.40
2016,05,17,08,39,12.40
2016,05,17,08,40,12.50
2016,05,17,08,41,12.60
2016,05,17,08,42,12.60
2016,05,17,08,43,12.70
2016,05,17,08,44,12.70
2016,05,17,08,45,12.70
2016,05,17,08,46,12.80
2016,05,17,08,47,12.80
2016,05,17,08,48,12.80
2016,05,17,08,49,12.90
2016,05,17,08,50,13.00
2016,05,17,08,51,13.10
2016,05,17,08,52,13.10
2016,05,17,08,53,13.20
2016,05,17,08,54,13.30
2016,05,17,08,55,13.30
2016,05,17,08,56,13.40
2016,05,17,08,57,13.50
2016,05,17,08,58,13.60
2016,05,17,08,59,13.60
2016,05,17,09,00,13.70
2016,05,17,09,01,13.70
2016,05,17,09,02,13.80
2016,05,17,09,03,13.80
2016,05,17,09,04,13.80
2016,05,17,09,05,13.80
2016,05,17,09,06,13.80
2016,05,17,09,07,13.80
2016,05,17,09,08,13.90
2016,05,17,09,09,13.80
2016,05,17,09,10,13.80
2016,05,17,09,11,13.80
2016,05,17,09,12,13.80
2016,05,17,09,13,13.90
2016,05,17,09,14,13.80
2016,05,17,09,15,13.80
2016,05,17,09,16,13.80
2016,05,17,09,17,13.80
2016,05,17,09,18,13.70
2016,05,17,09,19,13.70
2016,05,17,09,20,13.70
2016,05,17,09,21,13.80
2016,05,17,09,22,13.80
2016,05,17,09,23,13.80
2016,05,17,09,24,13.80
2016,05,17,09,25,13.90
2016,05,17,09,26,14.00
2016,05,17,09,27,14.10
2016,05,17,09,28,14.10
2016,05,17,09,29,14.20
2016,05,17,09,30,14.30
2016,05,17,09,31,14.30
2016,05,17,09,32,14.40
2016,05,17,09,33,14.40
2016,05,17,09,34,14.50
2016,05,17,09,35,14.60
2016,05,17,09,36,14.60
2016,05,17,09,37,14.70
2016,05,17,09,38,14.70
2016,05,17,09,39,14.70
2016,05,17,09,40,14.70
2016,05,17,09,41,14.80
2016,05,17,09,42,14.80
2016,05,17,09,43,14.80
2016,05,17,09,44,14.80
2016,05,17,09,45,14.80
2016,05,17,09,46,14.80
2016,05,17,09,47,14.80
2016,05,17,09,48,14.70
2016,05,17,09,49,14.70
2016,05,17,09,50,14.70
2016,05,17,09,51,14.70
2016,05,17,09,52,14.70
2016,05,17,09,53,14.80
2016,05,17,09,54,14.80
2016,05,17,09,55,14.80
2016,05,17,09,56,14.80
2016,05,17,09,57,14.80
2016,05,17,09,58,14.90
2016,05,17,09,59,15.00
2016,05,17,10,00,15.10
2016,05,17,10,01,15.20
2016,05,17,10,02,15.20
2016,05,17,10,03,15.30
2016,05,17,10,04,15.30
2016,05,17,10,05,15.40
2016,05,17,10,06,15.50
2016,05,17,10,07,15.60
2016,05,17,10,08,15.70
2016,05,17,10,09,15.80
2016,05,17,10,10,15.80
2016,05,17,10,11,15.90
2016,05,17,10,12,15.90
2016,05,17,10,13,16.00
2016,05,17,10,14,16.10
2016,05,17,10,15,16.10
2016,05,17,10,16,16.20
2016,05,17,10,17,16.20
2016,05,17,10,18,16.10
2016,05,17,10,19,16.20
2016,05,17,10,20,16.20
2016,05,17,10,21,16.20
2016,05,17,10,22,16.30
2016,05,17,10,23,16.30
2016,05,17,10,24,16.30
2016,05,17,10,25,16.40
2016,05,17,10,26,16.40
2016,05,17,10,27,16.40
2016,05,17,10,28,16.50
2016,05,17,10,29,16.60
2016,05,17,10,30,16.60
2016,05,17,10,31,16.60
2016,05,17,10,32,16.60
2016,05,17,10,33,16.60
2016,05,17,10,34,16.60
2016,05,17,10,35,16.70
2016,05,17,10,36,16.70
2016,05,17,10,37,16.70
2016,05,17,10,38,16.70
2016,05,17,10,39,16.80
2016,05,17,10,40,16.70
2016,05,17,10,41,16.70
2016,05,17,10,42,16.70
2016,05,17,10,43,16.70
2016,05,17,10,44,16.70
2016,05,17,10,45,16.60
2016,05,17,10,46,16.60
2016,05,17,10,47,16.60
2016,05,17,10,48,16.60
2016,05,17,10,49,16.60
2016,05,17,10,50,16.70
2016,05,17,10,51,16.70
2016,05,17,10,52,16.80
2016,05,17,10,53,16.90
2016,05,17,10,54,16.90
2016,05,17,10,55,17.00
2016,05,17,10,56,17.10
2016,05,17,10,57,17.10
2016,05,17,10,58,17.10
2016,05,17,10,59,17.20
2016,05,17,11,00,17.20
2016,05,17,11,01,17.20
2016,05,17,11,02,17.30
2016,05,17,11,03,17.40
2016,05,17,11,04,17.40
2016,05,17,11,05,17.50
2016,05,17,11,06,17.60
2016,05,17,11,07,17.70
2016,05,17,11,08,17.80
2016,05,17,11,09,17.90
2016,05,17,11,10,18.00
2016,05,17,11,11,18.10
2016,05,17,11,12,18.20
2016,05,17,11,13,18.20
2016,05,17,11,14,18.30
2016,05,17,11,15,18.30
2016,05,17,11,16,18.30
2016,05,17,11,17,18.40
2016,05,17,11,18,18.40
2016,05,17,11,19,18.40
2016,05,17,11,20,18.40
2016,05,17,11,21,18.40
2016,05,17,11,22,18.40
2016,05,17,11,23,18.40
2016,05,17,11,24,18.40
2016,05,17,11,25,18.40
2016,05,17,11,26,18.40
2016,05,17,11,27,18.40
2016,05,17,11,28,18.40
2016,05,17,11,29,18.30
2016,05,17,11,30,18.30
2016,05,17,11,31,18.20
2016,05,17,11,32,18.20
2016,05,17,11,33,18.20
2016,05,17,11,34,18.20
2016,05,17,11,35,18.20
2016,05,17,11,36,18.20
2016,05,17,11,37,18.20
2016,05,17,11,38,18.30
2016,05,17,11,39,18.30
2016,05,17,11,40,18.30
2016,05,17,11,41,18.40
2016,05,17,11,42,18.50
2016,05,17,11,43,18.60
2016,05,17,11,44,18.60
2016,05,17,11,45,18.60
2016,05,17,11,46,18.60
2016,05,17,11,47,18.60
2016,05,17,11,48,18.50
2016,05,17,11,49,18.40
2016,05,17,11,50,18.30
2016,05,17,11,51,18.30
2016,05,17,11,52,18.30
2016,05,17,11,53,18.30
2016,05,17,11,54,18.30
2016,05,17,11,55,18.40
2016,05,17,11,56,18.40
2016,05,17,11,57,18.40
2016,05,17,11,58,18.50
2016,05,17,11,59,18.60
2016,05,17,12,00,18.60
2016,05,17,12,01,18.60
2016,05,17,12,02,18.70
2016,05,17,12,03,18.80
2016,05,17,12,04,18.80
2016,05,17,12,05,18.90
2016,05,17,12,06,19.00
2016,05,17,12,07,19.10
2016,05,17,12,08,19.20
2016,05,17,12,09,19.20
2016,05,17,12,10,19.20
2016,05,17,12,11,19.30
2016,05,17,12,12,19.30
2016,05,17,12,13,19.30
2016,05,17,12,14,19.40
2016,05,17,12,15,19.60
2016,05,17,12,16,19.60
2016,05,17,12,17,19.70
2016,05,17,12,18,19.60
2016,05,17,12,19,19.60
2016,05,17,12,20,19.70
2016,05,17,12,21,19.70
2016,05,17,12,22,19.70
2016,05,17,12,23,19.60
2016,05,17,12,24,19.50
2016,05,17,12,25,19.40
2016,05,17,12,26,19.30
2016,05,17,12,27,19.40
2016,05,17,12,28,19.40
2016,05,17,12,29,19.60
2016,05,17,12,30,19.60
2016,05,17,12,31,19.70
2016,05,17,12,32,19.70
2016,05,17,12,33,19.60
2016,05,17,12,34,19.70
2016,05,17,12,35,19.70
2016,05,17,12,36,19.80
2016,05,17,12,37,19.80
2016,05,17,12,38,19.90
2016,05,17,12,39,20.10
2016,05,17,12,40,20.30
2016,05,17,12,41,20.40
2016,05,17,12,42,20.50
2016,05,17,12,43,20.50
2016,05,17,12,44,20.60
2016,05,17,12,45,20.40
2016,05,17,12,46,20.40
2016,05,17,12,47,20.50
2016,05,17,12,48,20.60
2016,05,17,12,49,20.70
2016,05,17,12,50,20.70
2016,05,17,12,51,20.60
2016,05,17,12,52,20.60
2016,05,17,12,53,20.60
2016,05,17,12,54,20.60
2016,05,17,12,55,20.70
2016,05,17,12,56,20.70
2016,05,17,12,57,20.80
2016,05,17,12,58,20.80
2016,05,17,12,59,20.80
2016,05,17,13,00,20.80
2016,05,17,13,01,20.90
2016,05,17,13,02,20.90
2016,05,17,13,03,21.10
2016,05,17,13,04,21.10
2016,05,17,13,05,21.10
2016,05,17,13,06,21.20
2016,05,17,13,07,21.20
2016,05,17,13,08,21.30
2016,05,17,13,09,21.20
2016,05,17,13,10,21.20
2016,05,17,13,11,21.20
2016,05,17,13,12,21.10
2016,05,17,13,13,21.10
2016,05,17,13,14,21.10
2016,05,17,13,15,21.10
2016,05,17,13,16,21.10
2016,05,17,13,17,21.10
2016,05,17,13,18,21.10
2016,05,17,13,19,21.20
2016,05,17,13,20,21.20
2016,05,17,13,21,21.20
2016,05,17,13,22,21.20
2016,05,17,13,23,21.20
2016,05,17,13,24,21.30
2016,05,17,13,25,21.30
2016,05,17,13,26,21.30
2016,05,17,13,27,21.30
2016,05,17,13,28,21.40
2016,05,17,13,29,21.40
2016,05,17,13,30,21.30
2016,05,17,13,31,21.30
2016,05,17,13,32,21.30
2016,05,17,13,33,21.40
2016,05,17,13,34,21.30
2016,05,17,13,35,21.30
2016,05,17,13,36,21.40
2016,05,17,13,37,21.40
2016,05,17,13,38,21.40
2016,05,17,13,39,21.60
2016,05,17,13,40,21.70
2016,05,17,13,41,21.80
2016,05,17,13,42,21.80
2016,05,17,13,43,21.80
2016,05,17,13,44,21.80
2016,05,17,13,45,21.80
2016,05,17,13,46,21.80
2016,05,17,13,47,21.90
2016,05,17,13,48,21.90
2016,05,17,13,49,21.90
2016,05,17,13,50,22.00
2016,05,17,13,51,22.00
2016,05,17,13,52,22.10
2016,05,17,13,53,22.10
2016,05,17,13,54,22.10
2016,05,17,13,55,22.20
2016,05,17,13,56,22.20
2016,05,17,13,57,22.20
2016,05,17,13,58,22.10
2016,05,17,13,59,22.10
2016,05,17,14,00,22.00
2016,05,17,14,01,22.00
2016,05,17,14,02,22.00
2016,05,17,14,03,22.00
2016,05,17,14,04,22.00
2016,05,17,14,05,22.10
2016,05,17,14,06,22.10
2016,05,17,14,07,22.10
2016,05,17,14,08,22.10
2016,05,17,14,09,22.10
2016,05,17,14,10,22.10
2016,05,17,14,11,22.10
2016,05,17,14,12,22.00
2016,05,17,14,13,21.90
2016,05,17,14,14,21.90
2016,05,17,14,15,21.90
2016,05,17,14,16,21.90
2016,05,17,14,17,21.90
2016,05,17,14,18,21.90
2016,05,17,14,19,21.90
2016,05,17,14,20,21.90
2016,05,17,14,21,21.90
2016,05,17,14,22,21.90
2016,05,17,14,23,22.00
2016,05,17,14,24,22.00
2016,05,17,14,25,22.10
2016,05,17,14,26,22.10
2016,05,17,14,27,22.20
2016,05,17,14,28,22.20
2016,05,17,14,29,22.20
2016,05,17,14,31,22.30
2016,05,17,14,32,22.30
2016,05,17,14,33,22.30
2016,05,17,14,34,22.30
2016,05,17,14,35,22.30
2016,05,17,14,36,22.20
2016,05,17,14,37,22.20
2016,05,17,14,38,22.20
2016,05,17,14,39,22.20
2016,05,17,14,40,22.20
2016,05,17,14,41,22.20
2016,05,17,14,42,22.20
2016,05,17,14,43,22.30
2016,05,17,14,44,22.30
2016,05,17,14,45,22.40
2016,05,17,14,46,22.40
2016,05,17,14,47,22.60
2016,05,17,14,48,22.60
2016,05,17,14,49,22.60
2016,05,17,14,50,22.50
2016,05,17,14,51,22.40
2016,05,17,14,52,22.40
2016,05,17,14,53,22.40
2016,05,17,14,54,22.40
2016,05,17,14,55,22.40
2016,05,17,14,56,22.40
2016,05,17,14,57,22.40
2016,05,17,14,58,22.40
2016,05,17,14,59,22.30
2016,05,17,15,00,22.30
2016,05,17,15,01,22.30
2016,05,17,15,02,22.30
2016,05,17,15,03,22.30
2016,05,17,15,04,22.30
2016,05,17,15,05,22.20
2016,05,17,15,06,22.10
2016,05,17,15,07,22.00
2016,05,17,15,08,21.90
2016,05,17,15,09,21.90
2016,05,17,15,10,21.80
2016,05,17,15,11,21.80
2016,05,17,15,12,21.70
2016,05,17,15,13,21.70
2016,05,17,15,14,21.60
2016,05,17,15,15,21.50
2016,05,17,15,16,21.40
2016,05,17,15,17,21.40
2016,05,17,15,18,21.40
2016,05,17,15,19,21.40
2016,05,17,15,20,21.50
2016,05,17,15,21,21.60
2016,05,17,15,22,21.60
2016,05,17,15,23,21.70
2016,05,17,15,24,21.70
2016,05,17,15,25,21.80
2016,05,17,15,26,21.90
2016,05,17,15,27,22.00
2016,05,17,15,28,22.10
2016,05,17,15,29,22.10
2016,05,17,15,30,22.20
2016,05,17,15,31,22.20
2016,05,17,15,32,22.10
2016,05,17,15,33,22.20
2016,05,17,15,34,22.20
2016,05,17,15,35,22.20
2016,05,17,15,36,22.20
2016,05,17,15,37,22.20
2016,05,17,15,38,22.20
2016,05,17,15,39,22.20
2016,05,17,15,40,22.20
2016,05,17,15,41,22.30
2016,05,17,15,42,22.30
2016,05,17,15,43,22.30
2016,05,17,15,44,22.30
2016,05,17,15,45,22.30
2016,05,17,15,46,22.30
2016,05,17,15,47,22.30
2016,05,17,15,48,22.30
2016,05,17,15,49,22.30
2016,05,17,15,50,22.40
2016,05,17,15,51,22.40
2016,05,17,15,52,22.60
2016,05,17,15,53,22.60
2016,05,17,15,54,22.60
2016,05,17,15,55,22.50
2016,05,17,15,56,22.40
2016,05,17,15,57,22.40
2016,05,17,15,58,22.40
2016,05,17,15,59,22.40
2016,05,17,16,00,22.40
2016,05,17,16,01,22.50
2016,05,17,16,02,22.50
2016,05,17,16,03,22.50
2016,05,17,16,04,22.50
2016,05,17,16,05,22.50
2016,05,17,16,06,22.50
2016,05,17,16,07,22.50
2016,05,17,16,08,22.50
2016,05,17,16,09,22.40
2016,05,17,16,10,22.40
2016,05,17,16,11,22.40
2016,05,17,16,12,22.40
2016,05,17,16,13,22.40
2016,05,17,16,14,22.50
2016,05,17,16,15,22.50
2016,05,17,16,16,22.50
2016,05,17,16,17,22.60
2016,05,17,16,18,22.50
2016,05,17,16,19,22.50
2016,05,17,16,20,22.60
2016,05,17,16,21,22.60
2016,05,17,16,22,22.70
2016,05,17,16,23,22.80
2016,05,17,16,24,22.80
2016,05,17,16,25,22.80
2016,05,17,16,26,22.90
2016,05,17,16,27,22.90
2016,05,17,16,28,23.00
2016,05,17,16,29,23.10
2016,05,17,16,30,23.00
2016,05,17,16,31,23.00
2016,05,17,16,32,23.00
2016,05,17,16,33,23.10
2016,05,17,16,34,23.10
2016,05,17,16,35,23.00
2016,05,17,16,36,22.90
2016,05,17,16,37,22.80
2016,05,17,16,38,22.80
2016,05,17,16,39,22.80
2016,05,17,16,40,22.70
2016,05,17,16,41,22.70
2016,05,17,16,42,22.70
2016,05,17,16,43,22.70
2016,05,17,16,44,22.70
2016,05,17,16,45,22.60
2016,05,17,16,46,22.50
2016,05,17,16,47,22.40
2016,05,17,16,48,22.40
2016,05,17,16,49,22.40
2016,05,17,16,50,22.40
2016,05,17,16,51,22.40
2016,05,17,16,52,22.40
2016,05,17,16,53,22.50
2016,05,17,16,54,22.40
2016,05,17,16,55,22.40
2016,05,17,16,56,22.30
2016,05,17,16,57,22.30
2016,05,17,16,58,22.30
2016,05,17,16,59,22.40
2016,05,17,17,00,22.50
2016,05,17,17,01,22.60
2016,05,17,17,02,22.60
2016,05,17,17,03,22.60
2016,05,17,17,04,22.60
2016,05,17,17,05,22.60
2016,05,17,17,06,22.70
2016,05,17,17,07,22.60
2016,05,17,17,08,22.60
2016,05,17,17,09,22.60
2016,05,17,17,10,22.60
2016,05,17,17,11,22.60
2016,05,17,17,12,22.60
2016,05,17,17,13,22.50
2016,05,17,17,14,22.50
2016,05,17,17,15,22.40
2016,05,17,17,16,22.30
2016,05,17,17,17,22.30
2016,05,17,17,18,22.30
2016,05,17,17,19,22.30
2016,05,17,17,20,22.40
2016,05,17,17,21,22.40
2016,05,17,17,22,22.40
2016,05,17,17,23,22.40
2016,05,17,17,24,22.50
2016,05,17,17,25,22.60
2016,05,17,17,26,22.60
2016,05,17,17,27,22.60
2016,05,17,17,28,22.60
2016,05,17,17,29,22.60
2016,05,17,17,30,22.60
2016,05,17,17,31,22.60